This is the latest recevied weather packets stored in our database for station/object OE6PLD-13. If no packets are shown the sender has not sent any weather packets the latest 10 day(s).
| Time | Temp. | Humidity | Pressure | Rain* | Wind** | Luminosity | Snow |
|---|---|---|---|---|---|---|---|
| 1777824907 | 25° C | 38% | 1010.8 hPa | 0.76 mm | - | 112 W/m² | - |
| 1777824724 | 25° C | 37% | 1011 hPa | 0.76 mm | - | 111 W/m² | - |
| 1777824541 | 25° C | 38% | 1010.8 hPa | 0.76 mm | - | 127 W/m² | - |
| 1777824357 | 25° C | 37% | 1010.9 hPa | 0.76 mm | - | 137 W/m² | - |
| 1777824174 | 25° C | 37% | 1010.9 hPa | 0.76 mm | - | 74 W/m² | - |
| 1777823991 | 25° C | 37% | 1010.9 hPa | 0.76 mm | - | 161 W/m² | - |
| 1777823807 | 25° C | 37% | 1011 hPa | 0.76 mm | - | 75 W/m² | - |
| 1777823624 | 25° C | 37% | 1010.8 hPa | 0.76 mm | - | 72 W/m² | - |
| 1777823441 | 25.56° C | 36% | 1011 hPa | 0.76 mm | - | 179 W/m² | - |
| 1777823257 | 25.56° C | 36% | 1010.9 hPa | 0.76 mm | - | 157 W/m² | - |
| 1777823074 | 25.56° C | 36% | 1010.8 hPa | 0.76 mm | - | 168 W/m² | - |
| 1777822891 | 25.56° C | 35% | 1011.1 hPa | 0.76 mm | - | 166 W/m² | - |
| 1777822707 | 26.11° C | 36% | 1011 hPa | 0.76 mm | - | 68 W/m² | - |
| 1777822524 | 26.11° C | 35% | 1010.9 hPa | 0.76 mm | - | 167 W/m² | - |
| 1777822341 | 25.56° C | 36% | 1010.7 hPa | 0.76 mm | - | 176 W/m² | - |
| 1777822157 | 25.56° C | 37% | 1010.9 hPa | 0.76 mm | - | 190 W/m² | - |
| 1777821974 | 25.56° C | 36% | 1011 hPa | 0.76 mm | - | 220 W/m² | - |
| 1777821791 | 25.56° C | 36% | 1010.9 hPa | 0.76 mm | - | 215 W/m² | - |
| 1777821607 | 25.56° C | 35% | 1011.2 hPa | 0.76 mm | - | 222 W/m² | - |
| 1777821424 | 26.11° C | 36% | 1011.1 hPa | 0.76 mm | - | 220 W/m² | - |
| 1777821241 | 25.56° C | 35% | 1011.1 hPa | 0.76 mm | - | 235 W/m² | - |
| 1777821057 | 25.56° C | 36% | 1011.2 hPa | 0.76 mm | - | 263 W/m² | - |
| 1777820874 | 25.56° C | 36% | 1011.2 hPa | 0.76 mm | - | 253 W/m² | - |
| 1777820691 | 26.11° C | 35% | 1011.2 hPa | 0.76 mm | - | 255 W/m² | - |
| 1777820507 | 26.11° C | 35% | 1011.2 hPa | 0.76 mm | - | 256 W/m² | - |
* Rain latest hour (hover to see other rain measurements)
** Current wind speed in m/s (hover to see current wind gust speed)